Showing default

TIANMU-1 19, 58660

Orbit data source: Space-Track

TIANMU-1 19, 58660 is a payload satellite owned by Hangtian Tianmu (CN) in SSO that was launched on Wed, 27 Dec 2023 UTC via a KUAIZHOU-1A launch vehicle from the Jiuquan Satellite Launch Center, China (JSC). Payload-class satellites include a variety of spacecraft equipped with specific instruments for various scientific and technological missions. These include communications satellites like Starlink; space stations such as the ISS; scientific satellites like the Hubble; Earth observation satellites from companies like Planet Labs, Umbra, and HawkEye 360; GPS; miniature CubeSats for education and research; and military/defense satellites.

Loading next visibility...
Identifier
58660, 2023-208A
Orbit
SSO
Country
Flag of CNCN / PRC
Related business
Manufacturer
Hangtian Tianmu
Mission
Operational Commercial Weather
Bus & Motor
TIANMU, Unknown motor
Mass
50 kg wet, ~50 kg dry
Launch date (UTC)
2023-12-27 (2 years ago)
Launch vehicle
KUAIZHOU-1A
Launch site
Jiuquan Satellite Launch Center, China (JSC)
Object type
Payload
Rocket body
Debris
Shape & HBR
Box, 0.8 m
Radar Cross Section
2.000 m², Medium (>0.1 m² and < 1m²)

Expand to show TLE details & history
Last TLE update: 1 day ago

TLE from 1 day ago
0 TIANMU-1 19
1 58660U 23208A   26172.40296416  .00006532  00000-0  21646-3 0  9998
2 58660  97.4505 288.7245 0003546 308.1636  51.9285 15.31627133137977
Epoch: 2026-06-21T09:40Z
TLE epoch observation values (Epoch: 2026-06-21T09:40:16.103Z)
Latitude
-0.00007°
Longitude
-125.94633°
Altitude
472.565 km
Speed
7.631 km/s
True Right ascension
19h 14m 53s
True Declination
0° 00' 00"
Sunlit
Object was in full shadow at epoch
Visualization orbit readout
Latitude
Unknown
Longitude
Unknown
Altitude
Unknown
Speed
Unknown
Apparent Right ascension
Unknown
Apparent Declination
Unknown
Sunlit
N/A
Visualization observer readout
Local Sidereal Time
21:27:11
Azimuth
Unknown
Elevation
Unknown
Doppler factor
Unknown
Orbital elements
Apogee altitude
470.337 km
Perigee altitude
465.482 km
Semi-major axis
6,846.046 km
Eccentricity
0.00035
Inclination
97.4505°
RAAN
288.7245°
Arg. of periapsis
308.1636°
True anomaly
51.9605°
Mean anomaly
51.9285°
Eccentric anomaly
51.9445°
Mean motion
3.83163 °/min
Orbital period
93.95 mins
BSTAR
0.00021646
Loading maneuver chart data...
Computing Atmospheric mass density...
Loading historical data...
Loading historical data...
Loading historical data...
Loading historical data...
Loading historical data...
Loading historical data...
Loading historical data...
Other satellites on launch #208 in the year 2023 (2023-12-27 UTC)

Documentation

Showing up to 5 results
|